Volver al catálogo

FENGYUN 1C DEB

ActivoSSO
NORAD 36224·DEBRIS·🇨🇳 China

Lanzado May 10, 1999 desde Taiyuan Satellite Launch Center

Loading…

Próximos Pases (próximas 24 horas)

TLE

EnvejeciendoSource: Space-Track

Época: Sep 9, 2026, 08:38 UTC

1 36224U 99025DUZ 26252.36007830  .00000091  00000-0  68553-4 0  9997
2 36224  98.7438 298.8883 0113670 302.2661  56.7537 14.12877828682537

Sigue FENGYUN 1C DEB en tiempo real con AllMySat

Download on the App Store